SCP
0 0 0 0 0 0 0 0 0 0 0 0 0 0 0 0 0 0 0 0 0 0
0 0 0 0 0 0 0 0 0 0 0 0 0 0 0 0 0 0 0 0 0 0
0 0 0 0 0 0 0 0 0 0 0 0 0 0 0 0 0 0 0 0 0 0
0 0 0 0 0 0 0 0 0 0 0 0 0 0 0 0 0 0 0 0 0 0
0 0 0 0 0 0 0 0 0 0 0 0 0 0 0 0 0 0 0 0 0 0
0 0 0 0 0 0 0 0 0 0 0 0 0 0 0 0 0 0 0 0 0 0
0 0 0 0 0 0 0 0 0 0 0 0 0 0 0 0 0 0 0 0 0 0
0 0 0 0 0 0 0 0 0 0 0 0 0 0 0 0 0 0 0 0 0 0
0 0 0 0 0 0 0 0 0 0 0 0 0 0 0 0 0 0 0 0 0 0
0 0 0 0 0 0 0 0 0 0 0 0 0 0 0 0 0 0 0 0 0 0
0 0 0 0 0 0 0 0 0 0 0 0 0 0 0 0 0 0 0 0 0 0
0 0 0 0 0 0 0 0 0 0 0 0 0 0 0 0 0 0 0 0 0 0
0 0 0 0 0 0 0 0 0 0 0 0 0 0 0 0 0 0 0 0 0 0
0 0 0 0 0 0 0 0 0 0 0 0 0 0 0 0 0 0 0 0 0 0
Wind_Speed_500mb
83 83 78 73 69 64 61 56 51 48 48 51 50 50 52 53 51 47 49 53 56 57
85 84 81 74 73 70 65 62 56 54 55 52 53 53 53 54 51 51 54 56 54 55
81 77 73 74 75 73 70 65 61 59 57 57 55 53 52 55 52 52 53 52 54 56
82 74 68 69 70 70 65 63 61 59 57 55 55 55 54 54 48 50 51 50 54 51
80 74 71 70 66 63 61 59 57 56 53 54 51 47 45 46 47 49 50 53 54 52
78 75 70 64 59 57 56 56 52 50 48 44 41 42 42 43 44 45 44 45 52 47
74 72 66 58 55 55 51 48 46 45 41 39 38 38 40 41 42 45 47 51 52 56
70 64 59 58 55 50 48 45 41 38 37 36 37 37 38 40 41 42 44 46 47 48
67 66 64 60 55 50 46 42 40 39 39 40 39 40 39 38 37 39 42 43 41 41
73 71 66 58 53 49 46 44 45 46 44 44 41 40 37 36 35 35 33 33 34 35
76 69 62 58 53 51 50 49 49 49 46 46 42 39 37 33 30 27 26 27 25 23
75 70 64 60 57 55 54 53 53 51 49 46 39 36 34 28 22 23 23 20 16 16
77 72 66 61 58 57 57 54 52 49 46 44 37 35 32 28 25 23 20 19 20 20
81 74 67 62 62 59 58 53 50 48 46 41 35 32 30 29 27 23 17 14 17 18
Wind_Direction_500mb
241 241 243 244 248 250 250 250 250 253 256 259 261 263 263 263 264 265 267 270 273 278
237 239 241 244 246 248 249 250 253 257 259 261 259 258 259 261 261 263 265 267 272 278
238 237 242 244 244 244 246 249 252 255 257 257 257 257 257 259 260 262 266 269 270 270
233 235 238 239 241 242 244 246 248 250 252 255 256 256 256 258 260 257 260 263 267 271
230 231 234 238 240 239 239 240 242 244 247 250 253 258 256 258 258 260 262 263 267 266
226 229 233 235 235 232 230 232 235 239 244 249 253 255 256 260 259 261 260 262 262 267
222 227 229 225 222 223 225 228 233 240 247 251 255 257 259 262 265 265 265 269 270 270
222 220 217 215 214 216 223 229 236 241 245 248 249 251 253 255 257 260 264 266 268 269
212 210 206 208 212 218 223 229 235 239 241 243 244 248 253 256 261 265 268 270 271 271
202 201 204 208 214 218 225 231 235 236 238 239 241 249 253 258 262 266 270 275 279 276
200 203 206 210 216 223 229 232 235 236 235 235 239 244 252 260 266 273 276 271 273 274
204 206 209 215 220 227 231 233 233 232 231 234 236 244 252 256 261 266 262 262 257 246
208 211 214 219 226 231 233 229 227 227 229 233 233 231 236 246 251 249 253 254 252 238
210 213 217 223 228 229 226 222 222 223 225 225 227 226 227 229 236 238 237 229 239 248
Wind_Speed_850mb
83 83 78 73 69 64 61 56 51 48 48 51 50 50 52 53 51 47 49 53 56 57
85 84 81 74 73 70 65 62 56 54 55 52 53 53 53 54 51 51 54 56 54 55
81 77 73 74 75 73 70 65 61 59 57 57 55 53 52 55 52 52 53 52 54 56
82 74 68 69 70 70 65 63 61 59 57 55 55 55 54 54 48 50 51 50 54 51
80 74 71 70 66 63 61 59 57 56 53 54 51 47 45 46 47 49 50 53 54 52
78 75 70 64 59 57 56 56 52 50 48 44 41 42 42 43 44 45 44 45 52 47
74 72 66 58 55 55 51 48 46 45 41 39 38 38 40 41 42 45 47 51 52 56
70 64 59 58 55 50 48 45 41 38 37 36 37 37 38 40 41 42 44 46 47 48
67 66 64 60 55 50 46 42 40 39 39 40 39 40 39 38 37 39 42 43 41 41
73 71 66 58 53 49 46 44 45 46 44 44 41 40 37 36 35 35 33 33 34 35
76 69 62 58 53 51 50 49 49 49 46 46 42 39 37 33 30 27 26 27 25 23
75 70 64 60 57 55 54 53 53 51 49 46 39 36 34 28 22 23 23 20 16 16
77 72 66 61 58 57 57 54 52 49 46 44 37 35 32 28 25 23 20 19 20 20
81 74 67 62 62 59 58 53 50 48 46 41 35 32 30 29 27 23 17 14 17 18
Wind_Direction_850mb
241 241 243 244 248 250 250 250 250 253 256 259 261 263 263 263 264 265 267 270 273 278
237 239 241 244 246 248 249 250 253 257 259 261 259 258 259 261 261 263 265 267 272 278
238 237 242 244 244 244 246 249 252 255 257 257 257 257 257 259 260 262 266 269 270 270
233 235 238 239 241 242 244 246 248 250 252 255 256 256 256 258 260 257 260 263 267 271
230 231 234 238 240 239 239 240 242 244 247 250 253 258 256 258 258 260 262 263 267 266
226 229 233 235 235 232 230 232 235 239 244 249 253 255 256 260 259 261 260 262 262 267
222 227 229 225 222 223 225 228 233 240 247 251 255 257 259 262 265 265 265 269 270 270
222 220 217 215 214 216 223 229 236 241 245 248 249 251 253 255 257 260 264 266 268 269
212 210 206 208 212 218 223 229 235 239 241 243 244 248 253 256 261 265 268 270 271 271
202 201 204 208 214 218 225 231 235 236 238 239 241 249 253 258 262 266 270 275 279 276
200 203 206 210 216 223 229 232 235 236 235 235 239 244 252 260 266 273 276 271 273 274
204 206 209 215 220 227 231 233 233 232 231 234 236 244 252 256 261 266 262 262 257 246
208 211 214 219 226 231 233 229 227 227 229 233 233 231 236 246 251 249 253 254 252 238
210 213 217 223 228 229 226 222 222 223 225 225 227 226 227 229 236 238 237 229 239 248